Time,TemperatureF,DewpointF,PressureIn,WindDirection,WindDirectionDegrees,WindSpeedMPH,WindSpeedGustMPH,Humidity,HourlyPrecipIn,Conditions,Clouds,dailyrainin,SoftwareType,DateUTC
2013-02-19 00:00:00,68.4,57.4,30.20,NE,40,5.0,8.0,68,0.00,,,0.00,Wunderground v.1.15,2013-02-19 05:00:00,
2013-02-19 00:10:00,68.4,57.4,30.20,NE,42,5.0,5.0,68,0.00,,,0.00,Wunderground v.1.15,2013-02-19 05:10:00,
2013-02-19 00:15:00,68.4,57.4,30.20,ENE,75,5.0,5.0,68,0.00,,,0.00,Wunderground v.1.15,2013-02-19 05:15:00,
2013-02-19 00:24:00,68.4,57.8,30.19,ENE,75,5.0,5.0,69,0.00,,,0.00,Wunderground v.1.15,2013-02-19 05:24:00,
2013-02-19 00:30:00,68.4,57.8,30.19,NE,41,5.0,5.0,69,0.00,,,0.00,Wunderground v.1.15,2013-02-19 05:30:00,
2013-02-19 00:35:00,68.4,57.8,30.19,ESE,104,5.0,5.0,69,0.00,,,0.00,Wunderground v.1.15,2013-02-19 05:35:00,
2013-02-19 00:45:00,68.4,57.8,30.19,NNE,29,5.0,7.0,69,0.00,,,0.00,Wunderground v.1.15,2013-02-19 05:45:00,
2013-02-19 00:50:00,68.3,57.7,30.19,East,96,6.0,6.0,69,0.00,,,0.00,Wunderground v.1.15,2013-02-19 05:50:00,
2013-02-19 01:00:00,68.3,57.3,30.19,North,11,4.0,4.0,68,0.00,,,0.00,Wunderground v.1.15,2013-02-19 06:00:00,
2013-02-19 01:10:00,68.3,58.5,30.19,North,8,3.0,3.0,71,0.00,,,0.00,Wunderground v.1.15,2013-02-19 06:10:00,
2013-02-19 01:20:00,68.3,58.5,30.19,SE,125,4.0,8.0,71,0.00,,,0.00,Wunderground v.1.15,2013-02-19 06:20:00,
2013-02-19 01:30:00,68.4,59.0,30.19,East,82,5.0,6.0,72,0.00,,,0.00,Wunderground v.1.15,2013-02-19 06:30:00,
2013-02-19 01:40:00,68.3,58.1,30.19,ENE,75,5.0,6.0,70,0.00,,,0.00,Wunderground v.1.15,2013-02-19 06:40:00,
2013-02-19 01:50:00,68.4,58.2,30.19,East,98,5.0,5.0,70,0.00,,,0.00,Wunderground v.1.15,2013-02-19 06:50:00,
2013-02-19 02:00:00,68.4,59.0,30.18,ESE,105,5.0,5.0,72,0.00,,,0.00,Wunderground v.1.15,2013-02-19 07:00:00,
2013-02-19 02:10:00,68.5,58.7,30.18,NE,40,4.0,4.0,71,0.00,,,0.00,Wunderground v.1.15,2013-02-19 07:10:00,
2013-02-19 02:20:00,68.6,58.0,30.17,ESE,122,5.0,5.0,69,0.00,,,0.00,Wunderground v.1.15,2013-02-19 07:20:00,
2013-02-19 02:30:00,68.8,57.4,30.17,East,79,7.0,8.0,67,0.00,,,0.00,Wunderground v.1.15,2013-02-19 07:30:00,
2013-02-19 02:40:00,68.8,57.8,30.17,SE,127,6.0,6.0,68,0.00,,,0.00,Wunderground v.1.15,2013-02-19 07:40:00,
2013-02-19 02:50:00,68.8,57.8,30.16,East,99,7.0,9.0,68,0.00,,,0.00,Wunderground v.1.15,2013-02-19 07:50:00,
2013-02-19 03:00:00,68.8,57.8,30.16,East,94,8.0,12.0,68,0.00,,,0.00,Wunderground v.1.15,2013-02-19 08:00:00,
2013-02-19 03:10:00,68.9,56.6,30.16,East,96,7.0,10.0,65,0.00,,,0.00,Wunderground v.1.15,2013-02-19 08:10:00,
2013-02-19 03:20:00,68.9,57.1,30.15,East,80,7.0,7.0,66,0.00,,,0.00,Wunderground v.1.15,2013-02-19 08:20:00,
2013-02-19 03:29:00,68.9,57.9,30.15,ESE,106,5.0,5.0,68,0.00,,,0.00,Wunderground v.1.15,2013-02-19 08:29:00,
2013-02-19 03:35:00,68.8,57.8,30.15,ESE,115,3.0,5.0,68,0.00,,,0.00,Wunderground v.1.15,2013-02-19 08:35:00,
2013-02-19 03:45:00,68.8,58.6,30.15,ENE,71,4.0,12.0,70,0.00,,,0.00,Wunderground v.1.15,2013-02-19 08:45:00,
2013-02-19 03:55:00,68.6,58.4,30.15,ENE,68,4.0,5.0,70,0.00,,,0.00,Wunderground v.1.15,2013-02-19 08:55:00,
2013-02-19 04:00:00,68.6,58.4,30.15,East,89,4.0,6.0,70,0.00,,,0.00,Wunderground v.1.15,2013-02-19 09:00:00,
2013-02-19 04:10:00,68.5,57.9,30.16,East,89,3.0,3.0,69,0.00,,,0.00,Wunderground v.1.15,2013-02-19 09:10:00,
2013-02-19 04:19:00,68.6,58.0,30.15,ENE,77,3.0,4.0,69,0.00,,,0.00,Wunderground v.1.15,2013-02-19 09:19:00,
2013-02-19 04:25:00,68.6,58.0,30.15,East,84,3.0,4.0,69,0.00,,,0.00,Wunderground v.1.15,2013-02-19 09:25:00,
2013-02-19 04:30:00,68.7,57.7,30.15,East,90,3.0,4.0,68,0.00,,,0.00,Wunderground v.1.15,2013-02-19 09:30:00,
2013-02-19 04:40:00,69.0,58.0,30.15,East,85,5.0,6.0,68,0.00,,,0.00,Wunderground v.1.15,2013-02-19 09:40:00,
2013-02-19 04:49:00,69.2,58.6,30.15,ENE,77,6.0,6.0,69,0.00,,,0.00,Wunderground v.1.15,2013-02-19 09:49:00,
2013-02-19 05:00:00,69.1,59.3,30.15,East,87,4.0,4.0,71,0.00,,,0.00,Wunderground v.1.15,2013-02-19 10:00:00,
2013-02-19 05:10:00,68.9,58.7,30.15,ESE,115,4.0,7.0,70,0.00,,,0.00,Wunderground v.1.15,2013-02-19 10:10:00,
2013-02-19 05:20:00,69.0,58.8,30.15,SE,129,5.0,6.0,70,0.00,,,0.00,Wunderground v.1.15,2013-02-19 10:20:00,
2013-02-19 05:30:00,69.2,59.0,30.15,East,79,5.0,5.0,70,0.00,,,0.00,Wunderground v.1.15,2013-02-19 10:30:00,
2013-02-19 05:40:00,69.2,59.4,30.16,ENE,78,4.0,6.0,71,0.00,,,0.00,Wunderground v.1.15,2013-02-19 10:40:00,
2013-02-19 05:49:00,69.2,59.8,30.16,East,95,5.0,5.0,72,0.00,,,0.00,Wunderground v.1.15,2013-02-19 10:49:00,
2013-02-19 06:00:00,69.2,59.8,30.17,ENE,73,4.0,4.0,72,0.00,,,0.00,Wunderground v.1.15,2013-02-19 11:00:00,
2013-02-19 06:10:00,69.1,60.1,30.17,East,91,4.0,4.0,73,0.00,,,0.00,Wunderground v.1.15,2013-02-19 11:10:00,
2013-02-19 06:20:00,69.1,59.7,30.17,ESE,103,4.0,4.0,72,0.00,,,0.00,Wunderground v.1.15,2013-02-19 11:20:00,
2013-02-19 06:25:00,69.1,59.7,30.17,ENE,76,4.0,8.0,72,0.00,,,0.00,Wunderground v.1.15,2013-02-19 11:25:00,
2013-02-19 06:30:00,69.2,60.2,30.17,ENE,68,5.0,8.0,73,0.00,,,0.00,Wunderground v.1.15,2013-02-19 11:30:00,
2013-02-19 06:40:00,69.1,60.1,30.17,East,96,4.0,4.0,73,0.00,,,0.00,Wunderground v.1.15,2013-02-19 11:40:00,
2013-02-19 06:49:00,69.3,60.3,30.17,ENE,64,5.0,5.0,73,0.00,,,0.00,Wunderground v.1.15,2013-02-19 11:49:00,
2013-02-19 07:00:00,69.2,60.2,30.18,NW,319,4.0,4.0,73,0.00,,,0.00,Wunderground v.1.15,2013-02-19 12:00:00,
2013-02-19 07:09:00,69.1,60.5,30.17,East,91,2.0,4.0,74,0.00,,,0.00,Wunderground v.1.15,2013-02-19 12:09:00,
2013-02-19 07:20:00,69.3,60.7,30.17,ENE,61,3.0,3.0,74,0.00,,,0.00,Wunderground v.1.15,2013-02-19 12:20:00,
2013-02-19 07:30:00,70.0,61.3,30.18,ESE,123,3.0,6.0,74,0.00,,,0.00,Wunderground v.1.15,2013-02-19 12:30:00,
2013-02-19 07:39:00,70.7,61.6,30.18,NE,41,5.0,5.0,73,0.00,,,0.00,Wunderground v.1.15,2013-02-19 12:39:00,
2013-02-19 07:45:00,71.0,61.5,30.18,East,93,6.0,7.0,72,0.00,,,0.00,Wunderground v.1.15,2013-02-19 12:45:00,
2013-02-19 07:55:00,71.1,61.6,30.18,East,91,6.0,7.0,72,0.00,,,0.00,Wunderground v.1.15,2013-02-19 12:55:00,
2013-02-19 08:00:00,71.1,61.6,30.19,ESE,102,6.0,8.0,72,0.00,,,0.00,Wunderground v.1.15,2013-02-19 13:00:00,
2013-02-19 08:10:00,71.0,61.1,30.19,SE,131,7.0,7.0,71,0.00,,,0.00,Wunderground v.1.15,2013-02-19 13:10:00,
2013-02-19 08:20:00,71.3,61.8,30.19,East,89,6.0,6.0,72,0.00,,,0.00,Wunderground v.1.15,2013-02-19 13:20:00,
2013-02-19 08:25:00,71.6,61.7,30.19,East,83,6.0,7.0,71,0.00,,,0.00,Wunderground v.1.15,2013-02-19 13:25:00,
2013-02-19 08:35:00,71.6,62.1,30.19,ESE,117,6.0,7.0,72,0.00,,,0.00,Wunderground v.1.15,2013-02-19 13:35:00,
2013-02-19 08:44:00,72.1,62.2,30.19,ENE,72,6.0,8.0,71,0.00,,,0.00,Wunderground v.1.15,2013-02-19 13:44:00,
2013-02-19 08:50:00,72.2,62.3,30.19,East,79,6.0,8.0,71,0.00,,,0.00,Wunderground v.1.15,2013-02-19 13:50:00,
2013-02-19 09:00:00,72.4,61.7,30.19,East,94,7.0,13.0,69,0.00,,,0.00,Wunderground v.1.15,2013-02-19 14:00:00,
2013-02-19 09:10:00,72.4,62.1,30.19,SE,129,7.0,10.0,70,0.00,,,0.00,Wunderground v.1.15,2013-02-19 14:10:00,
2013-02-19 09:20:00,72.6,62.3,30.19,NNE,27,7.0,7.0,70,0.00,,,0.00,Wunderground v.1.15,2013-02-19 14:20:00,
2013-02-19 09:29:00,72.9,62.9,30.19,East,82,5.0,9.0,71,0.00,,,0.00,Wunderground v.1.15,2013-02-19 14:29:00,
2013-02-19 09:35:00,72.7,61.9,30.19,NE,46,6.0,9.0,69,0.00,,,0.00,Wunderground v.1.15,2013-02-19 14:35:00,
2013-02-19 09:45:00,73.3,63.3,30.19,ESE,103,5.0,6.0,71,0.00,,,0.00,Wunderground v.1.15,2013-02-19 14:45:00,
2013-02-19 09:55:00,73.2,62.4,30.19,ENE,58,6.0,6.0,69,0.00,,,0.00,Wunderground v.1.15,2013-02-19 14:55:00,
2013-02-19 10:00:00,73.4,62.6,30.19,ENE,65,6.0,6.0,69,0.00,,,0.00,Wunderground v.1.15,2013-02-19 15:00:00,
2013-02-19 10:10:00,73.3,62.9,30.19,ESE,115,7.0,7.0,70,0.00,,,0.00,Wunderground v.1.15,2013-02-19 15:10:00,
2013-02-19 10:20:00,73.6,63.2,30.19,ENE,67,6.0,6.0,70,0.00,,,0.00,Wunderground v.1.15,2013-02-19 15:20:00,
2013-02-19 10:30:00,73.6,63.2,30.19,NNE,27,7.0,7.0,70,0.00,,,0.00,Wunderground v.1.15,2013-02-19 15:30:00,
2013-02-19 10:40:00,73.1,63.5,30.19,ENE,74,7.0,7.0,72,0.00,,,0.00,Wunderground v.1.15,2013-02-19 15:40:00,
2013-02-19 10:49:00,73.9,63.9,30.19,ESE,120,6.0,6.0,71,0.00,,,0.00,Wunderground v.1.15,2013-02-19 15:49:00,
2013-02-19 10:55:00,73.9,63.9,30.19,East,96,6.0,11.0,71,0.00,,,0.00,Wunderground v.1.15,2013-02-19 15:55:00,
2013-02-19 11:00:00,73.7,63.7,30.19,East,96,7.0,7.0,71,0.00,,,0.00,Wunderground v.1.15,2013-02-19 16:00:00,
2013-02-19 11:10:00,73.5,63.9,30.19,ENE,70,5.0,10.0,72,0.00,,,0.00,Wunderground v.1.15,2013-02-19 16:10:00,
2013-02-19 11:20:00,73.2,64.0,30.19,East,96,7.0,7.0,73,0.00,,,0.00,Wunderground v.1.15,2013-02-19 16:20:00,
2013-02-19 11:30:00,73.3,64.1,30.19,East,85,5.0,5.0,73,0.00,,,0.00,Wunderground v.1.15,2013-02-19 16:30:00,
2013-02-19 11:40:00,73.2,64.0,30.18,SE,124,6.0,7.0,73,0.00,,,0.00,Wunderground v.1.15,2013-02-19 16:40:00,
2013-02-19 11:50:00,73.0,64.2,30.18,ESE,108,10.0,12.0,74,0.00,,,0.00,Wunderground v.1.15,2013-02-19 16:50:00,
2013-02-19 12:00:00,73.5,64.3,30.18,ESE,105,8.0,11.0,73,0.00,,,0.00,Wunderground v.1.15,2013-02-19 17:00:00,
2013-02-19 12:10:00,73.5,64.3,30.17,ENE,67,7.0,7.0,73,0.00,,,0.00,Wunderground v.1.15,2013-02-19 17:10:00,
2013-02-19 12:20:00,73.9,64.7,30.17,ESE,115,8.0,9.0,73,0.00,,,0.00,Wunderground v.1.15,2013-02-19 17:20:00,
2013-02-19 12:30:00,74.4,65.2,30.17,East,82,6.0,7.0,73,0.00,,,0.00,Wunderground v.1.15,2013-02-19 17:30:00,
2013-02-19 12:40:00,73.9,64.3,30.17,East,96,7.0,7.0,72,0.00,,,0.00,Wunderground v.1.15,2013-02-19 17:40:00,
2013-02-19 12:50:00,73.9,65.1,30.16,ENE,75,5.0,5.0,74,0.00,,,0.00,Wunderground v.1.15,2013-02-19 17:50:00,
2013-02-19 13:00:00,73.4,65.4,30.16,ENE,78,6.0,6.0,76,0.00,,,0.00,Wunderground v.1.15,2013-02-19 18:00:00,
2013-02-19 13:09:00,73.5,65.8,30.15,ESE,113,4.0,4.0,77,0.00,,,0.00,Wunderground v.1.15,2013-02-19 18:09:00,
2013-02-19 13:15:00,73.9,65.5,30.15,ENE,74,6.0,6.0,75,0.00,,,0.00,Wunderground v.1.15,2013-02-19 18:15:00,
2013-02-19 13:25:00,74.3,65.9,30.15,ESE,112,6.0,7.0,75,0.00,,,0.00,Wunderground v.1.15,2013-02-19 18:25:00,
2013-02-19 13:35:00,74.4,65.6,30.15,East,101,7.0,9.0,74,0.00,,,0.00,Wunderground v.1.15,2013-02-19 18:35:00,
2013-02-19 13:44:00,74.9,65.7,30.14,SSE,153,7.0,7.0,73,0.00,,,0.00,Wunderground v.1.15,2013-02-19 18:44:00,
2013-02-19 13:50:00,75.0,65.8,30.14,East,93,7.0,8.0,73,0.00,,,0.00,Wunderground v.1.15,2013-02-19 18:50:00,
2013-02-19 13:55:00,75.3,66.0,30.13,East,82,6.0,9.0,73,0.00,,,0.00,Wunderground v.1.15,2013-02-19 18:55:00,
2013-02-19 14:00:00,75.1,65.9,30.13,East,90,6.0,10.0,73,0.00,,,0.00,Wunderground v.1.15,2013-02-19 19:00:00,
2013-02-19 14:10:00,74.9,65.7,30.13,ESE,105,9.0,9.0,73,0.00,,,0.00,Wunderground v.1.15,2013-02-19 19:10:00,
2013-02-19 14:20:00,75.3,66.0,30.13,ESE,120,6.0,6.0,73,0.00,,,0.00,Wunderground v.1.15,2013-02-19 19:20:00,
2013-02-19 14:29:00,75.3,66.0,30.12,East,98,7.0,7.0,73,0.00,,,0.00,Wunderground v.1.15,2013-02-19 19:29:00,
2013-02-19 14:40:00,75.0,65.8,30.12,ENE,74,7.0,7.0,73,0.00,,,0.00,Wunderground v.1.15,2013-02-19 19:40:00,
2013-02-19 14:45:00,75.1,66.2,30.12,ENE,76,6.0,7.0,74,0.00,,,0.00,Wunderground v.1.15,2013-02-19 19:45:00,
2013-02-19 14:55:00,75.2,65.9,30.12,East,82,6.0,8.0,73,0.00,,,0.00,Wunderground v.1.15,2013-02-19 19:55:00,
2013-02-19 15:00:00,75.6,66.7,30.12,ENE,74,5.0,7.0,74,0.00,,,0.00,Wunderground v.1.15,2013-02-19 20:00:00,
2013-02-19 15:10:00,75.0,66.1,30.11,ENE,61,6.0,9.0,74,0.00,,,0.00,Wunderground v.1.15,2013-02-19 20:10:00,
2013-02-19 15:20:00,74.4,66.3,30.11,East,96,7.0,8.0,76,0.00,,,0.00,Wunderground v.1.15,2013-02-19 20:20:00,
2013-02-19 15:29:00,74.4,66.7,30.11,East,96,8.0,8.0,77,0.00,,,0.00,Wunderground v.1.15,2013-02-19 20:29:00,
2013-02-19 15:35:00,74.4,66.3,30.11,ESE,120,8.0,8.0,76,0.00,,,0.00,Wunderground v.1.15,2013-02-19 20:35:00,
2013-02-19 15:45:00,74.2,66.5,30.11,East,86,6.0,10.0,77,0.00,,,0.00,Wunderground v.1.15,2013-02-19 20:45:00,
2013-02-19 15:55:00,74.4,66.3,30.11,ESE,112,7.0,8.0,76,0.00,,,0.00,Wunderground v.1.15,2013-02-19 20:55:00,
2013-02-19 16:00:00,74.4,66.7,30.11,East,84,7.0,7.0,77,0.00,,,0.00,Wunderground v.1.15,2013-02-19 21:00:00,
2013-02-19 16:10:00,74.2,66.5,30.11,ESE,117,7.0,7.0,77,0.00,,,0.00,Wunderground v.1.15,2013-02-19 21:10:00,
2013-02-19 16:19:00,74.0,66.7,30.10,East,101,7.0,10.0,78,0.00,,,0.00,Wunderground v.1.15,2013-02-19 21:19:00,
2013-02-19 16:30:00,74.2,66.5,30.10,East,79,7.0,9.0,77,0.00,,,0.00,Wunderground v.1.15,2013-02-19 21:30:00,
2013-02-19 16:40:00,74.6,66.5,30.10,ESE,114,6.0,7.0,76,0.00,,,0.00,Wunderground v.1.15,2013-02-19 21:40:00,
2013-02-19 16:49:00,74.3,66.6,30.10,ENE,61,7.0,11.0,77,0.00,,,0.00,Wunderground v.1.15,2013-02-19 21:49:00,
2013-02-19 16:55:00,74.0,66.3,30.10,East,81,7.0,11.0,77,0.00,,,0.00,Wunderground v.1.15,2013-02-19 21:55:00,
2013-02-19 17:00:00,73.9,66.2,30.10,East,86,7.0,7.0,77,0.00,,,0.00,Wunderground v.1.15,2013-02-19 22:00:00,
2013-02-19 17:10:00,73.8,66.1,30.10,East,95,6.0,6.0,77,0.00,,,0.00,Wunderground v.1.15,2013-02-19 22:10:00,
2013-02-19 17:20:00,73.9,66.6,30.09,East,99,5.0,8.0,78,0.00,,,0.00,Wunderground v.1.15,2013-02-19 22:20:00,
2013-02-19 17:30:00,73.9,66.6,30.10,ENE,74,5.0,5.0,78,0.00,,,0.00,Wunderground v.1.15,2013-02-19 22:30:00,
2013-02-19 17:39:00,73.7,66.8,30.10,East,98,5.0,5.0,79,0.00,,,0.00,Wunderground v.1.15,2013-02-19 22:39:00,
2013-02-19 17:45:00,73.6,66.7,30.10,ESE,113,5.0,5.0,79,0.00,,,0.00,Wunderground v.1.15,2013-02-19 22:45:00,
2013-02-19 17:55:00,73.5,66.6,30.10,East,97,5.0,5.0,79,0.00,,,0.00,Wunderground v.1.15,2013-02-19 22:55:00,
2013-02-19 18:00:00,73.4,66.5,30.10,ESE,120,5.0,5.0,79,0.00,,,0.00,Wunderground v.1.15,2013-02-19 23:00:00,
2013-02-19 18:10:00,73.3,66.8,30.10,East,96,3.0,3.0,80,0.00,,,0.00,Wunderground v.1.15,2013-02-19 23:10:00,
2013-02-19 18:19:00,73.2,66.7,30.10,ENE,75,4.0,9.0,80,0.00,,,0.00,Wunderground v.1.15,2013-02-19 23:19:00,
2013-02-19 18:30:00,73.1,66.9,30.11,East,98,3.0,3.0,81,0.00,,,0.00,Wunderground v.1.15,2013-02-19 23:30:00,
2013-02-19 18:40:00,73.0,66.8,30.11,ENE,64,3.0,3.0,81,0.00,,,0.00,Wunderground v.1.15,2013-02-19 23:40:00,
2013-02-19 18:50:00,72.9,66.7,30.11,ENE,76,3.0,3.0,81,0.00,,,0.00,Wunderground v.1.15,2013-02-19 23:50:00,
2013-02-19 19:00:00,72.9,67.1,30.11,SE,145,3.0,3.0,82,0.00,,,0.00,Wunderground v.1.15,2013-02-20 00:00:00,
2013-02-19 19:09:00,72.8,67.0,30.12,ESE,111,2.0,3.0,82,0.00,,,0.00,Wunderground v.1.15,2013-02-20 00:09:00,
2013-02-19 19:19:00,72.8,67.0,30.12,East,82,4.0,4.0,82,0.00,,,0.00,Wunderground v.1.15,2013-02-20 00:19:00,
2013-02-19 19:25:00,72.8,67.0,30.11,ESE,115,3.0,4.0,82,0.00,,,0.00,Wunderground v.1.15,2013-02-20 00:25:00,
2013-02-19 19:35:00,72.6,67.1,30.11,East,99,2.0,3.0,83,0.00,,,0.00,Wunderground v.1.15,2013-02-20 00:35:00,
2013-02-19 19:44:00,72.5,67.0,30.11,East,92,4.0,7.0,83,0.00,,,0.00,Wunderground v.1.15,2013-02-20 00:44:00,
2013-02-19 19:55:00,72.4,66.9,30.12,East,79,3.0,4.0,83,0.00,,,0.00,Wunderground v.1.15,2013-02-20 00:55:00,
2013-02-19 20:00:00,72.4,66.9,30.12,ENE,77,2.0,2.0,83,0.00,,,0.00,Wunderground v.1.15,2013-02-20 01:00:00,
2013-02-19 20:10:00,72.4,66.9,30.12,SSW,194,2.0,2.0,83,0.00,,,0.00,Wunderground v.1.15,2013-02-20 01:10:00,
2013-02-19 20:20:00,72.3,66.8,30.12,ESE,123,2.0,2.0,83,0.00,,,0.00,Wunderground v.1.15,2013-02-20 01:20:00,
2013-02-19 20:30:00,72.3,66.8,30.12,SE,125,2.0,4.0,83,0.00,,,0.00,Wunderground v.1.15,2013-02-20 01:30:00,
2013-02-19 20:39:00,72.3,66.8,30.12,ESE,115,2.0,2.0,83,0.00,,,0.00,Wunderground v.1.15,2013-02-20 01:39:00,
2013-02-19 20:45:00,72.3,67.2,30.12,East,92,1.0,2.0,84,0.00,,,0.00,Wunderground v.1.15,2013-02-20 01:45:00,
2013-02-19 20:55:00,72.1,67.0,30.12,ESE,111,0.0,1.0,84,0.00,,,0.00,Wunderground v.1.15,2013-02-20 01:55:00,
2013-02-19 21:00:00,72.0,66.9,30.12,East,94,1.0,1.0,84,0.00,,,0.00,Wunderground v.1.15,2013-02-20 02:00:00,
2013-02-19 21:10:00,71.9,67.1,30.13,East,101,1.0,2.0,85,0.00,,,0.00,Wunderground v.1.15,2013-02-20 02:10:00,
2013-02-19 21:19:00,71.9,67.1,30.12,ESE,120,1.0,2.0,85,0.00,,,0.00,Wunderground v.1.15,2013-02-20 02:19:00,
2013-02-19 21:30:00,71.9,67.1,30.12,ESE,120,1.0,2.0,85,0.00,,,0.00,Wunderground v.1.15,2013-02-20 02:30:00,
2013-02-19 21:40:00,71.8,67.0,30.13,East,87,1.0,1.0,85,0.00,,,0.00,Wunderground v.1.15,2013-02-20 02:40:00,
2013-02-19 21:50:00,71.6,66.8,30.13,SE,143,0.0,0.0,85,0.00,,,0.00,Wunderground v.1.15,2013-02-20 02:50:00,
2013-02-19 21:55:00,71.4,67.0,30.13,SSE,166,0.0,0.0,86,0.00,,,0.00,Wunderground v.1.15,2013-02-20 02:55:00,
2013-02-19 22:00:00,71.3,66.9,30.13,ESE,103,0.0,0.0,86,0.00,,,0.00,Wunderground v.1.15,2013-02-20 03:00:00,
2013-02-19 22:10:00,71.2,66.8,30.12,ESE,108,0.0,0.0,86,0.00,,,0.00,Wunderground v.1.15,2013-02-20 03:10:00,
2013-02-19 22:19:00,70.9,66.8,30.12,SE,133,0.0,0.0,87,0.00,,,0.00,Wunderground v.1.15,2013-02-20 03:19:00,
2013-02-19 22:25:00,70.8,66.7,30.11,SE,137,0.0,2.0,87,0.00,,,0.00,Wunderground v.1.15,2013-02-20 03:25:00,
2013-02-19 22:35:00,70.8,66.7,30.12,SW,225,0.0,0.0,87,0.00,,,0.00,Wunderground v.1.15,2013-02-20 03:35:00,
2013-02-19 22:44:00,70.6,66.9,30.12,SW,215,0.0,0.0,88,0.00,,,0.00,Wunderground v.1.15,2013-02-20 03:44:00,
2013-02-19 22:55:00,70.1,66.4,30.12,SW,215,0.0,0.0,88,0.00,,,0.00,Wunderground v.1.15,2013-02-20 03:55:00,
2013-02-19 23:00:00,69.9,66.2,30.12,SW,214,0.0,0.0,88,0.00,,,0.00,Wunderground v.1.15,2013-02-20 04:00:00,
2013-02-19 23:10:00,69.3,65.9,30.11,SW,218,0.0,1.0,89,0.00,,,0.00,Wunderground v.1.15,2013-02-20 04:10:00,
2013-02-19 23:20:00,68.9,65.8,30.11,WSW,240,0.0,0.0,90,0.00,,,0.00,Wunderground v.1.15,2013-02-20 04:20:00,
2013-02-19 23:30:00,68.5,65.4,30.11,WSW,240,0.0,0.0,90,0.00,,,0.00,Wunderground v.1.15,2013-02-20 04:30:00,
2013-02-19 23:40:00,68.1,65.4,30.10,WSW,240,0.0,0.0,91,0.00,,,0.00,Wunderground v.1.15,2013-02-20 04:40:00,
2013-02-19 23:50:00,67.9,65.2,30.10,WSW,240,0.0,0.0,91,0.00,,,0.00,Wunderground v.1.15,2013-02-20 04:50:00,
2013-02-19 23:55:00,67.7,65.0,30.10,WSW,240,0.0,0.0,91,0.00,,,0.00,Wunderground v.1.15,2013-02-20 04:55:00,